Theta_e
328 331 332 333 332 331 329 328 331 331 331 331 330 332 335 337 338 333 330 325 320 321 323 322 322 321 321 321 320 321 321 320 319 317 316 315 315 317 320 321 320 323 325 325 327 329 331 332 333 333 333 333 333 333 333 332 332 332 331 329 329 328 328 328 328 327 327 326 325 324 325 326 326 327 326 325 323 322 321 320 319 318 318 318 318 318
327 331 331 330 330 329 327 328 331 333 332 330 331 332 333 336 338 330 326 325 319 322 326 324 322 321 319 319 318 319 319 320 320 319 317 315 315 315 317 320 320 321 322 324 326 327 329 332 332 333 333 333 333 333 333 333 332 332 331 330 330 329 328 328 328 328 327 327 326 325 325 326 326 326 326 325 322 321 321 322 322 321 320 319 319 318
330 331 329 328 328 327 327 328 331 332 331 331 331 332 335 335 331 324 320 320 318 323 330 327 322 321 319 318 318 318 318 318 318 318 318 316 315 314 314 316 319 321 323 326 326 324 326 330 331 333 333 333 333 333 333 333 332 332 331 331 330 330 329 329 329 328 328 328 327 326 326 326 326 326 325 325 323 323 322 322 322 322 322 321 320 319
331 330 328 328 327 326 327 328 330 331 331 332 331 332 336 333 330 329 321 316 318 321 325 323 320 319 318 319 319 317 317 317 318 318 317 317 316 315 314 315 318 320 322 325 327 324 324 327 330 332 332 333 333 332 333 333 332 332 332 332 331 331 330 330 330 329 329 329 327 327 326 326 326 326 326 326 325 325 324 324 323 323 323 322 321 320
330 328 326 327 327 327 328 329 331 335 334 333 332 333 336 332 332 332 321 318 320 320 321 319 322 328 326 324 322 319 318 317 317 318 318 318 317 316 316 316 317 319 321 323 325 324 323 325 328 330 331 332 332 332 332 333 333 332 332 332 332 331 331 331 331 330 329 328 327 326 326 326 326 326 326 327 326 326 326 325 324 324 324 324 323 322
328 326 326 327 328 327 329 330 331 335 334 333 333 334 337 334 328 324 321 324 325 326 326 320 328 343 339 332 328 324 321 319 317 317 317 318 317 317 317 316 316 318 321 322 323 323 322 324 326 329 331 331 331 332 332 333 333 332 332 332 332 332 332 331 331 331 330 328 328 327 326 326 326 326 327 327 327 327 327 326 325 325 325 325 325 324
328 325 326 327 328 328 330 331 331 332 332 334 336 335 335 332 326 322 322 330 333 331 326 321 330 342 336 329 328 326 325 322 319 318 317 317 316 317 316 315 316 316 319 321 322 322 321 323 325 326 329 330 331 332 332 333 332 332 332 332 332 332 332 332 331 331 330 329 328 328 327 327 327 327 327 327 327 327 327 327 327 327 326 326 326 326
327 326 328 327 328 329 329 330 330 329 331 336 336 333 331 328 325 323 324 335 337 330 328 327 328 331 330 327 325 324 325 323 322 320 319 317 316 317 316 315 315 314 316 319 321 322 320 320 324 325 328 330 331 332 332 332 332 332 332 332 332 332 332 332 331 331 330 330 329 329 329 328 328 328 327 327 327 327 327 327 328 327 327 327 327 327
326 327 328 327 328 328 329 331 329 328 332 335 331 329 331 329 326 325 327 335 333 329 334 330 323 329 335 334 329 327 326 326 325 324 322 320 318 317 316 316 315 314 314 316 318 319 317 318 322 325 327 328 330 330 331 331 332 332 332 332 332 332 332 332 332 332 331 331 330 330 329 329 329 329 328 328 328 328 328 328 328 329 329 328 328 329
326 327 326 326 328 328 331 333 329 329 331 329 328 328 329 330 328 327 332 336 332 333 337 329 327 336 338 335 333 329 328 326 325 326 324 322 321 318 317 317 316 315 314 315 316 315 314 317 321 323 325 327 328 329 330 330 331 331 331 332 332 332 332 332 332 332 332 331 331 330 330 330 330 329 329 329 328 328 328 328 329 329 329 329 329 329
326 326 325 327 328 328 331 331 328 330 330 327 330 329 328 331 332 333 336 336 335 336 335 329 332 338 337 337 334 328 328 327 323 325 324 322 323 321 319 319 318 317 316 316 316 313 311 314 318 322 324 326 327 328 329 329 330 330 331 331 332 332 332 332 332 332 332 331 331 331 331 330 330 330 329 329 329 328 328 328 328 328 329 329 329 330
328 328 327 328 327 327 330 329 327 328 328 329 333 331 331 334 335 336 335 334 336 337 332 328 329 334 336 337 335 329 328 325 322 324 325 324 324 321 320 320 318 319 317 316 317 315 313 314 316 319 323 324 326 327 328 329 329 329 330 330 331 331 331 331 331 331 331 331 331 331 331 331 330 330 329 329 329 328 328 328 328 328 328 329 329 329
329 328 327 327 326 326 329 330 328 326 326 329 332 332 335 335 334 337 335 333 336 334 328 325 326 331 332 330 330 327 324 322 321 320 321 323 323 321 321 322 320 320 319 318 317 317 317 315 312 315 320 323 324 326 327 328 328 329 329 329 329 330 330 330 331 331 331 330 331 331 330 330 330 329 329 329 329 328 328 328 328 328 328 328 328 328
330 327 327 327 326 326 327 329 330 328 327 328 328 332 336 335 337 339 335 335 337 331 324 322 326 331 331 329 326 325 323 323 323 322 322 321 320 320 323 325 324 322 320 319 317 317 319 315 310 311 316 320 322 324 326 327 328 328 328 328 328 329 329 329 330 330 330 330 330 330 330 330 329 329 329 329 329 328 328 328 328 328 329 328 328 328
332 331 328 328 328 328 326 328 331 329 327 327 328 333 335 335 337 339 336 336 334 328 321 320 328 333 334 333 327 323 323 323 323 323 321 320 319 320 327 329 326 325 323 320 318 318 317 312 309 311 312 315 319 322 324 326 327 327 327 328 328 328 328 328 329 329 329 330 330 330 330 329 329 329 329 328 328 328 328 328 328 328 328 328 328 328
332 332 328 326 327 327 326 328 329 328 329 329 331 335 335 335 337 335 332 331 330 327 323 322 328 331 330 328 321 319 322 322 321 320 318 321 321 320 327 330 329 330 328 323 322 323 317 309 308 310 311 312 315 317 320 323 325 326 327 327 327 328 327 327 328 328 328 329 329 329 329 329 329 329 328 328 328 328 328 328 328 328 328 328 327 328
330 330 326 325 325 326 327 328 325 327 331 329 330 333 330 330 336 334 326 324 326 330 328 324 327 329 328 325 321 322 323 321 321 320 319 322 322 321 327 331 332 333 330 326 326 327 319 309 307 310 311 312 313 313 316 319 321 324 325 327 327 327 328 327 327 328 327 328 328 328 329 329 329 329 329 329 328 328 328 328 328 328 328 328 328 328
329 328 325 325 326 324 325 327 325 326 329 329 330 330 326 327 334 336 331 326 327 332 330 324 325 329 328 328 329 329 326 325 326 324 320 319 320 322 326 328 330 331 328 327 327 325 317 306 305 309 310 312 313 313 314 316 319 322 323 325 325 326 327 326 327 327 327 327 328 328 329 328 329 329 329 329 329 329 329 329 329 329 329 329 328 328
327 328 324 323 326 323 322 326 327 325 325 328 329 327 329 332 332 334 334 331 329 331 333 328 324 326 326 328 331 327 326 330 331 326 321 319 320 322 323 322 324 325 327 329 328 329 323 308 304 308 310 311 312 311 312 313 315 318 320 322 324 324 326 326 326 326 326 327 327 328 328 328 329 329 329 329 330 329 330 329 329 329 329 329 329 328
324 329 326 321 323 324 323 326 328 327 324 326 327 326 329 332 330 331 333 332 330 329 333 330 325 328 328 324 324 322 321 324 325 324 325 325 323 322 321 320 323 325 329 333 331 333 328 311 304 308 309 309 311 311 311 312 312 313 314 317 319 320 322 323 323 325 325 325 326 327 328 328 328 329 329 329 329 329 329 329 329 329 329 329 328 328
322 327 328 322 320 324 327 326 327 327 324 324 327 327 328 327 327 332 331 331 333 332 333 332 330 335 332 323 321 322 320 321 323 324 326 329 326 321 318 319 326 330 333 337 334 335 332 312 305 309 309 309 311 312 312 313 312 312 311 311 312 313 314 315 317 318 318 319 321 322 323 324 324 325 326 327 327 328 328 328 328 328 328 327 327 327
325 325 325 323 323 326 328 324 324 326 325 326 327 327 327 325 326 331 331 330 332 331 332 333 332 336 334 324 319 319 320 321 323 325 325 329 328 322 319 319 324 331 338 341 338 338 331 311 304 308 309 309 311 311 311 312 312 313 312 311 311 310 310 310 311 311 312 313 314 315 317 319 321 323 324 325 326 326 327 327 326 326 326 326 326 326
327 326 324 324 323 323 322 319 322 326 326 327 328 327 327 324 324 329 329 329 330 327 328 329 329 336 339 328 320 321 321 320 321 322 323 326 326 321 319 318 320 328 336 336 334 332 318 304 305 309 309 310 311 310 311 311 311 312 312 311 311 311 310 310 310 310 310 312 313 314 317 319 321 322 324 324 325 325 325 325 325 325 325 325 325 325
324 325 323 323 320 319 319 320 323 324 324 326 327 328 328 324 323 327 326 327 329 327 326 327 328 336 344 335 326 324 322 319 320 320 321 326 326 321 321 323 325 329 331 329 328 324 310 302 306 308 308 310 310 310 310 310 310 311 311 311 311 311 311 310 310 311 311 312 313 315 317 319 321 322 322 323 323 323 323 323 323 323 323 324 324 324
324 323 322 324 323 322 324 325 324 323 323 325 325 325 326 324 324 326 324 325 328 327 327 328 328 335 343 335 325 322 319 318 318 318 318 324 329 329 331 332 331 330 330 329 329 326 318 313 310 306 306 309 309 310 311 310 310 310 309 310 310 310 310 310 311 312 312 313 313 314 316 317 319 320 320 321 321 321 322 321 322 321 321 321 322 322
325 322 321 325 326 327 329 328 326 325 323 325 325 324 325 325 325 325 323 324 326 326 326 327 328 333 337 330 323 321 320 317 314 313 313 316 324 333 336 333 330 330 330 330 329 327 323 321 313 304 304 308 309 310 311 310 310 309 309 309 309 309 309 309 310 312 313 314 314 314 315 315 317 318 318 319 319 319 319 319 319 319 318 318 318 319
324 321 320 324 324 325 328 327 325 324 324 325 325 324 324 325 324 324 324 325 324 324 324 326 325 326 327 324 324 325 323 319 315 313 313 315 319 325 328 328 328 328 328 328 326 324 323 323 316 306 303 307 309 310 311 311 310 310 309 310 309 309 309 308 309 310 312 313 314 314 315 315 316 316 316 316 316 315 315 315 314 314 313 313 313 314
324 320 320 322 322 322 325 324 323 322 324 324 325 324 324 324 325 325 325 325 325 325 324 324 324 325 325 326 328 326 322 319 318 319 319 318 318 320 323 325 326 326 326 324 324 327 327 325 320 309 302 305 309 310 311 311 310 310 310 310 310 310 310 309 309 310 310 311 312 313 313 313 313 313 313 313 312 312 311 310 310 309 308 309 309 309
321 320 320 321 322 323 324 323 322 322 323 323 323 324 323 324 325 325 325 324 325 326 325 322 323 324 322 324 326 324 321 319 321 322 318 314 315 319 321 324 326 326 327 327 326 328 327 325 324 313 303 303 306 308 310 310 310 310 310 310 311 310 311 311 310 310 310 310 311 311 311 311 312 311 311 310 310 309 308 307 306 306 306 306 306 306
321 321 320 320 321 323 323 324 323 322 323 323 323 323 323 323 324 324 325 324 324 325 324 323 325 323 320 320 321 320 321 320 319 317 314 313 317 321 322 325 325 325 326 326 325 325 324 321 320 311 302 301 304 305 307 310 310 310 310 310 311 311 311 311 311 311 311 311 311 311 311 311 311 309 308 307 306 305 304 305 305 306 307 307 307 308
323 323 320 320 321 321 321 323 323 323 323 323 323 323 322 323 323 323 324 324 324 325 324 323 325 323 321 322 320 320 321 321 319 316 316 317 320 320 321 322 324 324 323 321 320 322 320 316 317 312 303 302 305 305 307 310 310 311 311 310 311 311 311 311 311 311 311 311 310 310 310 310 308 306 304 303 303 303 304 305 306 307 308 308 309 310
323 323 320 320 321 320 320 321 323 323 323 323 323 322 322 323 323 323 323 323 323 325 325 325 325 323 322 322 322 321 321 320 320 319 319 319 319 319 318 318 319 321 321 319 317 318 317 316 320 319 307 303 305 306 307 309 310 310 311 311 310 310 311 311 311 311 311 310 309 309 308 307 305 303 302 302 303 304 305 306 306 307 308 308 310 310
323 322 320 319 322 322 319 319 321 322 323 324 323 321 322 322 322 322 322 322 322 323 324 324 324 322 322 323 322 321 320 319 319 319 319 319 319 319 318 317 318 317 318 318 315 314 314 313 311 309 305 305 308 309 309 310 311 311 311 310 310 310 311 311 311 310 309 308 308 307 305 303 302 301 301 302 304 304 306 306 306 307 308 308 309 310
323 323 319 320 323 323 319 318 320 322 324 324 321 320 321 321 322 322 322 321 321 321 322 322 321 322 323 322 320 320 319 318 317 318 318 318 318 319 318 318 318 316 314 314 311 310 311 307 303 303 305 307 309 309 309 310 310 311 310 310 310 310 310 311 310 309 308 307 306 305 303 301 301 301 301 303 304 305 306 306 306 307 308 308 308 309
322 321 319 321 322 319 317 319 322 324 324 322 320 319 319 319 320 321 321 321 320 320 320 320 320 321 322 322 322 321 319 317 317 317 317 316 316 317 318 316 315 313 312 311 310 312 311 304 300 302 305 307 308 308 309 309 310 310 309 309 310 310 310 310 309 307 307 306 305 304 302 301 301 301 302 303 304 305 305 306 306 306 307 306 307 307
321 320 319 320 319 317 318 320 324 325 322 320 321 320 319 319 320 321 322 321 319 319 320 320 320 319 320 322 321 318 317 318 317 315 314 314 314 314 315 315 313 312 313 312 310 311 309 302 301 304 306 308 308 307 308 308 309 309 308 308 308 309 309 309 307 306 306 306 305 303 302 301 301 301 302 303 304 304 305 306 306 306 306 306 306 306
321 321 320 320 319 319 320 321 323 324 321 320 321 320 318 319 319 320 322 321 319 318 319 319 319 319 319 319 319 317 317 318 317 315 314 315 314 313 312 313 313 313 312 310 307 307 306 304 304 306 307 308 307 307 308 308 308 308 308 307 307 307 307 307 307 307 306 306 305 303 302 301 301 301 302 303 303 303 304 305 305 305 306 307 306 306
320 321 321 322 321 320 320 321 323 325 323 321 319 318 318 319 320 319 320 321 319 319 319 318 318 319 318 318 320 320 318 319 319 317 316 317 317 315 313 312 311 309 307 307 305 304 304 305 305 306 306 306 307 308 308 308 308 308 307 306 306 306 305 306 306 306 306 306 304 303 302 301 301 301 302 302 303 303 303 304 305 305 306 306 306 306
318 321 321 322 321 320 321 322 323 324 324 322 320 319 318 321 321 320 321 322 320 318 318 317 318 318 317 319 321 320 318 319 319 316 317 319 318 317 315 313 310 306 304 305 306 304 304 304 305 305 305 305 306 308 309 309 308 307 306 305 306 305 304 306 307 307 306 306 304 302 302 301 300 301 301 302 302 302 303 304 305 305 306 305 304 305
315 318 319 321 322 320 321 323 323 324 324 323 321 318 317 318 319 322 323 322 319 318 318 317 317 318 317 319 320 318 317 318 318 317 319 321 318 316 315 313 312 309 306 306 308 307 305 304 304 304 304 305 308 309 309 309 308 306 305 305 304 303 306 307 307 307 306 305 303 302 301 301 300 300 301 301 301 301 302 304 304 304 305 304 304 304
315 316 318 320 321 321 321 323 325 325 325 322 317 314 315 318 320 323 323 321 319 320 318 316 317 317 317 317 316 315 316 316 316 317 318 318 317 316 314 311 311 310 308 307 309 308 305 303 303 304 305 307 309 309 308 308 307 306 306 304 302 305 309 308 307 305 304 303 303 302 301 300 300 300 300 301 301 301 302 303 303 304 304 304 303 303
316 317 317 319 321 321 321 322 324 326 324 319 314 313 316 320 321 320 319 320 328 328 318 315 317 316 315 316 315 314 315 314 314 316 316 316 316 317 315 311 309 310 310 309 309 307 305 304 304 304 305 307 307 307 307 307 307 306 304 302 304 309 309 307 305 304 304 304 303 302 300 299 299 299 300 300 301 301 302 302 302 303 303 303 302 302
317 317 318 319 320 321 321 322 325 326 321 315 314 315 317 320 321 321 319 321 330 334 323 315 316 316 315 316 315 314 315 314 314 314 315 316 317 315 314 313 311 310 309 307 307 307 306 304 303 304 307 308 307 306 306 306 305 305 303 303 307 308 307 304 303 304 304 304 303 301 299 298 298 299 299 299 300 300 301 301 301 301 301 301 301 301
317 317 318 318 318 320 322 322 322 321 316 313 314 316 317 317 317 320 322 319 321 328 328 321 317 317 315 316 316 314 314 314 314 314 314 314 315 314 313 312 310 307 306 305 306 307 305 304 303 305 307 307 306 306 306 305 305 303 302 305 306 305 303 302 304 303 303 303 301 299 298 298 298 299 299 299 299 300 300 300 300 300 300 300 300 300
316 317 318 317 317 318 320 320 318 316 314 313 315 316 317 318 315 315 319 318 318 323 326 325 326 324 319 316 315 314 314 314 314 314 313 313 313 312 311 310 308 306 304 303 305 306 305 304 304 305 305 305 305 305 305 305 304 302 302 304 304 302 302 303 303 302 302 300 298 297 298 297 298 298 298 299 299 299 300 299 299 299 299 299 299 299
315 316 316 316 317 318 319 319 317 315 315 317 316 314 315 318 317 314 313 315 321 326 325 324 329 330 321 315 315 316 315 314 313 312 312 312 312 311 310 309 307 304 301 301 304 305 305 304 303 302 302 303 303 303 304 304 303 303 304 303 302 302 302 302 301 300 299 297 297 297 297 297 298 298 298 298 298 299 299 299 298 298 298 297 298 298
315 315 314 315 317 318 319 320 319 316 316 318 319 317 316 318 318 315 313 315 321 325 322 318 318 317 313 311 315 318 317 313 312 312 311 311 313 312 311 311 308 302 299 299 302 304 304 302 300 299 299 300 301 301 302 302 302 302 303 302 301 301 302 301 300 299 297 296 297 296 296 297 297 297 297 297 297 298 298 298 298 298 297 297 296 296
315 315 315 316 317 317 317 318 318 317 316 316 317 317 318 318 318 316 316 319 319 317 314 312 310 311 313 314 315 318 318 313 311 312 313 313 312 311 311 311 309 304 300 299 300 302 301 299 298 298 298 298 299 300 300 301 301 301 301 301 301 301 301 300 299 297 296 296 296 295 296 296 295 295 296 295 296 297 297 297 297 297 296 296 295 294
313 314 317 318 317 317 316 314 314 316 316 315 315 316 317 317 317 317 317 317 316 315 315 315 312 311 313 315 314 314 316 315 312 311 313 314 313 312 313 310 304 300 299 298 298 299 299 298 298 298 298 298 299 299 299 299 300 299 299 300 300 300 300 299 297 296 295 295 294 294 294 294 294 294 294 293 295 296 296 296 296 295 295 294 293 292
312 314 316 316 316 315 314 314 315 315 315 316 317 319 320 319 319 319 318 316 315 315 315 315 314 311 310 312 312 312 314 315 313 311 312 315 316 314 313 309 301 296 296 297 298 297 298 298 298 297 297 297 297 298 298 298 298 298 298 299 300 300 299 297 295 294 293 293 292 292 292 292 292 292 292 293 294 294 294 294 293 293 292 291 290 290
312 313 314 315 315 313 312 316 320 316 314 316 318 320 322 321 319 319 318 317 317 316 315 315 314 313 312 312 310 309 311 314 313 310 311 316 316 308 302 301 301 297 295 295 296 295 295 296 296 296 295 295 295 296 296 297 297 297 298 298 299 299 298 296 294 292 291 291 290 290 290 290 290 291 291 292 292 292 291 290 290 289 289 289 288 288
Wind_Speed
5 6 7 9 11 11 12 11 7 7 11 11 9 7 6 6 4 4 4 5 6 7 7 10 10 11 11 12 10 7 6 6 8 8 7 7 7 7 9 10 11 11 14 17 21 25 29 32 33 34 34 34 34 35 36 36 37 38 37 37 38 37 36 36 36 36 36 36 35 35 36 37 36 35 34 33 33 33 33 33 33 33 32 31 31 30
5 10 13 12 12 12 14 12 7 7 8 7 7 7 6 6 4 4 4 4 5 5 6 5 7 11 12 11 9 6 6 8 10 10 10 10 8 8 10 12 12 11 10 10 14 21 27 29 31 32 33 34 35 35 37 38 39 38 37 38 39 38 38 38 38 37 38 38 37 37 37 37 37 36 36 36 35 34 34 33 33 34 34 33 33 32
9 14 15 13 12 12 13 11 7 7 7 6 6 6 6 5 3 2 2 1 4 4 4 2 4 9 11 11 10 8 9 10 10 11 12 11 10 10 11 12 11 10 9 7 10 17 24 28 30 31 32 35 36 36 37 38 38 37 38 39 39 39 40 40 39 39 39 39 38 37 36 36 35 35 36 36 35 34 35 35 35 35 34 34 34 33
11 11 13 13 12 13 12 11 9 6 5 5 5 5 5 4 4 2 3 1 3 3 2 1 3 7 8 9 10 11 12 11 11 12 12 10 12 13 12 11 11 12 12 10 10 13 20 25 27 30 33 35 35 35 36 38 38 38 40 41 40 40 40 40 40 40 39 37 36 36 35 33 32 32 32 33 34 35 35 36 36 37 36 35 35 35
6 5 13 12 11 14 13 12 11 6 4 4 5 6 5 6 6 3 2 2 2 2 1 3 5 6 6 8 11 8 7 10 11 11 11 11 13 13 10 10 11 13 13 12 12 11 15 21 26 31 34 34 33 35 37 39 40 40 41 41 41 40 40 40 40 40 39 36 34 33 31 29 27 28 28 29 33 36 37 38 38 39 38 37 37 36
4 9 16 15 13 14 12 12 11 8 5 3 5 7 7 8 7 5 6 5 4 3 3 2 2 6 4 5 9 5 3 8 7 8 13 14 12 9 8 10 10 11 12 13 14 13 16 21 26 30 32 31 32 36 40 41 41 41 40 40 40 40 40 40 40 40 39 37 35 33 31 29 27 28 30 33 36 37 38 40 40 39 38 37 38 37
4 11 17 16 15 16 13 11 11 10 7 4 6 7 7 7 8 8 8 5 3 3 3 2 4 5 6 5 9 7 6 9 6 8 13 12 10 9 10 11 11 11 11 11 11 12 16 20 23 26 30 32 34 39 41 39 39 40 40 40 40 40 40 40 40 39 39 38 36 36 36 35 33 32 35 38 37 36 37 38 38 38 38 37 38 38
9 15 16 16 15 14 12 10 11 11 7 3 5 7 8 8 9 10 8 4 2 3 2 4 2 3 6 6 8 7 8 11 10 10 11 9 11 12 12 13 12 12 12 10 11 11 13 19 23 27 32 36 40 41 38 36 39 41 41 40 40 40 40 40 39 38 39 39 38 38 37 37 37 38 39 36 34 34 33 34 35 36 37 38 38 38
12 18 17 17 14 11 10 7 11 13 7 3 3 7 8 7 7 7 6 3 1 2 1 4 2 1 7 6 4 4 5 11 12 12 12 11 12 13 13 13 12 12 11 11 12 12 14 20 26 30 34 38 42 40 37 38 40 40 40 39 38 39 39 39 38 38 40 41 40 38 37 37 39 40 39 34 31 32 31 32 33 34 35 37 37 38
7 13 13 13 10 8 7 6 11 13 6 2 6 8 6 5 6 4 4 4 3 1 4 5 2 0 6 6 3 2 4 10 11 9 10 10 10 11 11 11 11 10 9 10 11 12 16 22 27 31 32 35 38 38 37 38 38 37 38 37 38 39 39 38 38 39 40 40 40 39 38 39 39 38 35 33 32 32 31 32 32 32 33 34 35 37
3 7 8 8 6 6 6 4 6 9 8 7 7 7 7 5 5 3 2 4 2 3 4 7 6 3 4 5 4 5 6 7 7 7 9 8 8 9 9 9 10 9 9 10 10 12 16 22 25 27 28 30 33 33 33 33 34 35 36 36 38 40 39 38 38 39 40 40 40 41 41 41 41 37 33 33 33 32 31 32 31 31 31 32 33 35
6 9 6 4 5 7 7 3 1 4 10 8 5 5 5 3 3 2 3 2 3 4 3 8 7 6 5 7 4 5 7 6 6 7 8 8 8 8 7 8 8 8 9 9 9 10 12 15 18 21 23 27 28 27 29 32 33 34 35 36 38 39 38 38 38 39 39 39 41 43 42 42 42 38 35 35 34 32 31 31 30 30 30 30 31 32
6 9 4 3 5 10 11 5 1 1 7 6 5 8 6 2 1 2 2 1 4 3 2 5 5 4 9 9 6 10 12 11 9 8 8 9 10 9 7 7 8 7 8 9 8 9 9 9 14 19 23 25 26 28 31 34 34 35 36 36 37 39 40 39 39 39 39 39 41 43 43 43 41 37 36 36 34 32 31 31 30 30 30 30 31 31
6 3 1 4 4 9 13 11 6 5 8 9 8 10 8 5 4 5 3 0 2 2 0 3 3 3 6 6 9 16 18 15 9 7 9 10 11 11 8 7 7 7 8 8 8 9 8 9 14 20 24 26 27 30 32 34 35 36 36 35 37 39 38 37 38 38 39 40 42 42 42 41 38 36 36 36 34 32 31 31 31 31 31 31 32 32
11 4 7 11 6 10 15 12 8 6 8 9 5 6 6 5 4 5 4 2 2 1 1 1 2 4 3 3 8 11 12 12 8 7 8 8 10 9 7 6 6 7 7 7 7 8 9 11 16 19 22 25 27 30 32 33 34 34 34 35 37 39 37 36 38 38 39 41 42 40 40 39 37 36 36 35 35 34 33 33 32 32 32 33 33 33
11 4 7 8 1 10 16 7 5 8 6 4 2 4 4 5 4 3 3 3 4 2 2 2 4 4 4 9 12 8 9 9 8 8 7 8 8 6 6 6 6 6 6 6 7 8 9 12 15 17 20 24 26 28 30 32 33 33 34 35 37 39 37 36 37 39 40 41 39 38 37 37 36 36 35 36 36 35 35 34 34 34 34 34 33 33
10 4 8 8 1 10 13 6 7 10 7 2 3 7 4 3 6 5 1 2 4 2 3 3 5 5 4 10 13 11 10 9 7 8 8 8 6 4 6 7 6 6 5 5 6 6 7 9 14 18 22 25 27 29 30 32 34 35 35 36 36 37 36 35 36 38 38 37 35 34 35 35 35 35 36 37 36 36 35 35 34 34 34 33 33 32
7 4 5 9 6 6 5 8 8 5 5 6 6 7 4 3 3 4 2 2 2 4 4 3 7 4 2 6 6 7 9 8 6 6 7 6 4 5 8 7 7 7 5 5 5 6 7 8 12 17 21 24 27 28 30 30 30 31 33 34 34 35 35 34 34 33 32 32 31 32 32 33 35 35 36 36 35 34 33 33 33 33 32 32 31 30
8 5 2 2 6 2 2 8 8 3 2 5 7 7 5 2 3 3 4 3 3 4 3 3 5 4 6 6 6 7 8 7 6 4 4 6 6 7 8 8 8 7 5 6 6 6 6 8 13 17 20 22 22 22 23 23 23 24 26 28 29 31 31 30 28 27 27 27 29 31 32 33 33 33 33 32 31 31 30 30 30 30 30 29 27 27
8 7 1 1 2 3 3 6 9 6 1 3 5 6 3 2 4 5 3 3 4 4 3 2 3 5 7 6 9 14 13 11 9 6 5 8 9 9 8 7 7 6 6 7 7 8 7 9 15 18 17 17 16 15 16 16 17 19 21 23 25 25 25 24 23 23 25 27 28 29 30 29 29 28 28 27 27 27 27 27 26 26 27 26 25 24
5 4 5 3 2 4 7 7 11 13 8 6 8 8 5 2 2 2 2 2 4 4 3 2 3 6 6 6 11 16 15 12 10 7 7 9 9 9 8 7 7 7 7 7 7 8 7 10 14 13 10 10 11 12 13 14 16 17 18 20 21 22 22 22 23 24 26 27 27 27 26 25 25 24 24 24 24 24 24 23 23 23 23 23 22 22
4 4 7 7 4 8 10 6 7 11 11 8 8 9 8 5 4 4 4 2 3 4 4 4 4 7 6 5 9 12 11 9 8 7 8 8 9 10 8 7 7 7 7 8 7 7 6 8 9 7 7 8 10 12 14 15 16 17 18 18 19 20 21 22 23 24 24 24 24 24 23 22 21 21 21 21 21 22 21 21 21 21 21 20 20 20
4 6 9 7 5 6 5 2 2 5 7 4 4 6 6 5 6 8 8 6 5 3 2 3 3 7 6 5 6 8 8 7 6 8 8 8 9 8 7 6 6 6 7 7 6 6 5 6 7 7 8 10 12 13 14 15 16 17 18 18 18 19 20 20 21 21 21 20 20 20 20 19 19 19 20 20 20 20 20 20 20 20 20 19 19 18
4 6 8 6 3 3 3 4 4 3 5 4 4 5 6 8 9 7 4 4 6 5 4 2 5 6 6 4 4 5 6 6 6 8 9 8 7 6 7 6 6 7 7 6 5 5 5 5 6 7 10 11 13 13 14 15 16 17 17 18 19 20 20 19 19 18 18 19 19 19 19 19 19 20 20 20 20 20 20 20 20 20 20 19 19 19
4 7 9 8 4 2 1 1 2 1 5 7 8 8 11 13 9 4 1 3 3 8 9 6 6 7 5 4 2 4 5 4 6 5 7 7 6 5 6 6 6 6 6 6 6 5 4 4 5 7 9 11 12 14 15 16 17 17 17 18 19 20 20 19 18 17 17 18 19 20 20 20 20 21 21 21 21 21 21 21 21 21 21 20 20 20
4 8 10 11 10 8 10 11 9 10 9 8 9 12 15 16 14 9 4 3 5 7 10 9 6 4 5 5 4 5 4 4 5 2 3 5 5 5 5 5 6 6 6 7 6 5 5 5 5 7 10 12 14 16 17 17 17 17 17 18 18 19 19 20 19 19 18 19 19 20 20 21 21 21 21 21 21 21 21 21 22 22 21 21 21 21
4 7 9 12 15 15 13 9 8 11 10 9 12 15 16 15 14 10 5 7 8 4 6 9 5 1 4 6 6 7 6 5 4 2 2 4 4 4 5 5 5 5 6 6 5 5 6 6 6 8 11 15 17 18 18 18 18 18 18 18 18 17 18 19 20 20 21 21 21 21 21 21 21 21 21 21 21 21 21 21 21 21 20 20 19 19
5 8 10 12 15 13 7 7 10 14 15 15 16 16 15 12 11 10 12 13 6 5 6 12 7 7 9 7 8 10 7 4 4 5 5 5 5 5 5 4 5 6 6 5 6 7 7 8 7 7 12 16 17 18 19 19 19 19 19 19 19 19 19 20 21 21 21 22 22 22 22 21 21 21 21 21 21 20 19 18 17 17 18 18 17 17
6 9 12 13 13 9 8 10 14 15 15 16 18 19 18 17 17 18 20 19 9 6 14 14 10 12 12 9 11 11 6 5 7 6 5 3 4 5 5 5 7 7 7 7 8 8 8 9 7 7 12 16 17 18 19 20 21 21 21 21 21 21 21 21 22 22 22 22 23 22 22 21 21 21 20 20 19 17 14 12 10 9 10 11 11 11
4 7 10 12 11 8 9 12 14 15 13 13 16 18 19 20 22 22 23 22 14 11 18 14 10 15 13 11 13 9 4 7 6 2 1 3 5 6 7 8 8 8 8 9 9 9 9 8 7 8 11 14 17 19 20 22 23 24 25 24 24 23 23 23 24 24 24 24 23 22 22 21 20 18 16 15 14 12 10 9 7 6 5 5 5 5
4 7 10 11 9 6 8 11 14 16 15 14 15 17 17 17 19 19 19 17 12 14 22 19 15 16 10 9 10 8 8 10 7 4 4 6 8 8 7 8 8 8 9 9 9 9 8 7 7 8 10 15 20 22 23 25 26 26 26 26 26 26 25 25 25 24 24 24 23 22 21 19 17 15 13 12 12 10 9 9 8 8 8 7 6 6
5 6 7 9 7 6 8 11 14 15 13 13 15 17 17 17 17 18 19 18 16 18 22 19 16 16 8 7 9 9 10 13 14 13 11 10 10 9 8 9 9 9 10 10 9 10 9 8 9 9 12 18 23 25 27 28 26 26 28 28 27 27 26 27 27 25 25 24 23 21 20 18 16 15 14 13 12 11 11 10 10 10 9 9 9 9
7 7 6 8 9 8 9 11 12 11 9 10 15 19 22 22 21 21 20 20 18 16 15 15 17 14 6 8 10 10 11 14 15 14 14 15 13 11 10 11 11 11 11 11 10 11 10 9 10 13 18 23 27 30 32 31 29 29 30 29 27 27 27 28 28 27 26 25 23 21 20 18 16 16 15 14 13 13 12 12 12 11 11 11 11 10
8 9 7 8 8 6 8 10 9 8 10 12 15 20 25 24 23 21 19 19 17 15 14 15 16 9 6 9 13 11 11 13 13 13 14 13 12 11 11 12 13 14 12 10 9 10 9 9 13 19 24 28 32 33 32 31 30 30 29 28 27 28 28 29 29 27 26 25 23 22 20 19 18 17 16 15 15 14 14 14 13 13 13 12 13 12
11 10 7 6 4 4 9 10 8 10 13 11 9 15 18 17 18 19 20 20 20 21 20 21 21 13 7 8 11 8 10 12 11 13 16 13 11 11 12 13 13 13 12 10 10 11 10 11 15 20 26 30 32 31 30 31 32 29 26 26 27 27 28 29 28 27 26 25 24 23 22 21 20 19 17 17 17 16 16 15 15 15 14 13 13 13
13 10 6 5 4 4 7 10 8 7 5 3 5 10 11 12 16 17 19 22 23 22 19 20 23 17 11 11 8 4 6 6 6 12 15 12 10 11 12 12 12 13 13 11 11 13 16 19 23 27 31 33 32 30 30 32 33 29 26 25 25 26 27 27 26 26 25 25 25 25 24 23 22 21 20 19 19 18 18 18 17 16 15 14 13 13
11 11 7 6 5 4 7 9 6 1 1 2 6 11 15 17 18 16 15 17 16 15 14 18 22 20 20 17 6 4 2 4 7 14 12 9 10 11 11 12 13 14 14 15 19 24 27 30 32 34 34 33 31 31 32 32 32 30 28 25 25 25 25 25 26 27 27 27 27 27 26 25 24 23 22 22 21 21 21 19 18 17 16 16 16 15
6 10 9 9 6 5 7 8 6 5 7 10 13 14 15 12 10 10 8 10 9 14 17 21 23 23 21 14 6 6 3 3 12 16 8 11 12 11 11 14 15 15 16 20 25 27 28 30 31 32 32 30 28 31 33 32 31 31 29 27 26 26 25 26 28 29 29 30 29 28 28 27 26 25 25 25 24 23 22 21 20 19 18 17 17 16
2 4 7 8 6 6 8 8 8 9 11 11 11 10 8 10 14 13 5 12 12 17 19 20 23 24 17 9 7 7 4 8 16 11 7 14 14 14 15 18 17 17 22 28 30 27 27 29 29 28 26 25 27 31 33 32 31 31 30 29 28 26 26 29 32 32 32 32 30 29 29 28 27 26 27 27 26 25 24 23 21 20 19 18 16 15
3 1 5 7 6 7 9 7 5 6 8 6 10 12 12 14 17 14 7 14 11 14 16 19 22 21 13 8 9 9 10 14 16 7 10 15 16 16 19 20 18 17 22 29 34 32 27 25 24 23 23 27 32 34 32 31 30 30 31 30 27 26 29 34 36 34 33 31 29 29 29 29 28 27 28 28 26 25 24 23 22 21 20 18 16 15
2 1 3 6 6 8 10 7 2 3 6 4 11 15 17 16 13 10 13 10 6 13 15 17 18 16 13 12 11 10 13 18 18 11 8 10 11 14 17 19 20 22 25 30 34 30 23 21 23 25 29 33 36 33 30 29 28 29 31 28 26 30 35 37 35 32 31 29 29 29 29 29 29 28 29 28 26 25 24 23 23 22 21 19 17 15
3 1 1 4 5 5 6 5 2 4 5 6 11 15 16 13 9 11 9 2 6 11 12 13 15 15 14 13 12 12 15 19 20 14 6 6 10 14 14 13 14 18 23 26 26 22 19 20 22 25 28 30 30 29 29 29 29 30 28 27 30 37 38 34 31 30 29 29 28 29 29 29 29 28 28 27 26 25 24 23 22 21 20 19 18 16
4 4 2 3 4 2 3 5 4 4 4 10 15 12 10 9 7 5 3 2 3 7 8 10 12 12 10 10 12 14 17 18 17 13 9 9 11 13 13 11 10 12 17 20 20 20 20 20 20 25 29 29 28 28 28 29 30 29 28 30 37 38 34 30 29 29 29 29 29 29 29 29 28 28 27 26 26 26 25 23 22 21 20 19 17 16
2 3 3 3 3 3 5 6 4 3 3 10 13 8 7 7 3 1 5 4 1 3 7 8 8 9 9 10 12 13 15 15 14 14 12 10 11 13 14 12 11 11 14 18 20 20 19 18 20 24 27 27 27 27 29 32 32 30 30 35 37 32 28 28 29 29 30 30 29 29 29 28 28 27 27 27 27 26 25 24 23 21 20 18 17 16
1 3 3 2 2 3 4 4 2 1 3 4 4 2 5 5 1 3 3 4 3 4 5 6 6 9 10 10 11 10 10 12 14 16 14 11 11 14 14 13 13 12 12 16 19 19 19 21 23 23 25 27 28 29 31 34 33 32 33 36 34 29 29 30 30 31 31 30 29 30 29 28 28 28 27 28 28 27 27 26 24 23 21 19 18 17
0 2 3 2 1 3 5 7 6 3 3 5 3 2 1 2 3 3 3 1 5 5 5 5 7 8 7 8 8 8 9 12 14 13 10 7 9 11 11 11 12 11 11 15 18 21 22 22 22 22 23 25 27 29 30 33 34 34 35 34 31 30 31 32 32 32 31 29 29 30 30 29 29 28 28 28 28 28 28 27 26 24 23 21 20 19
2 2 2 1 2 3 3 6 7 4 4 6 7 5 4 5 3 1 2 3 6 5 4 5 5 4 3 5 7 9 10 10 9 9 7 6 8 11 10 9 11 11 12 15 19 22 22 19 17 18 20 22 25 27 29 31 34 33 31 29 29 30 31 32 33 31 30 29 29 30 30 30 29 29 28 28 28 27 27 27 26 25 23 23 21 20
2 2 3 3 5 5 4 5 3 0 2 6 6 6 6 6 5 5 5 5 5 5 3 3 3 3 4 5 7 8 9 8 7 8 8 6 7 9 9 9 10 11 13 15 17 18 18 17 17 18 19 21 24 26 27 29 30 29 27 25 28 30 31 32 32 30 29 30 29 30 30 30 30 29 29 29 29 28 27 27 26 24 23 23 22 21
2 3 3 4 4 5 7 7 3 4 6 6 5 5 7 7 7 9 9 7 6 7 7 7 6 5 6 6 6 6 7 10 8 7 7 7 7 8 8 8 9 11 13 15 16 17 18 19 19 19 20 22 23 25 26 27 26 26 25 25 28 31 32 31 30 28 29 29 29 29 29 29 29 29 29 29 29 27 26 25 24 23 21 20 19 17
2 3 3 2 3 6 6 3 3 1 5 6 6 7 9 8 8 9 10 10 9 9 9 10 10 7 6 6 6 7 7 10 8 6 6 7 7 8 8 8 8 10 12 13 14 16 19 20 19 19 20 20 21 23 24 25 25 25 25 26 30 32 33 32 29 27 27 28 28 28 28 28 28 28 28 28 28 26 23 21 19 17 17 16 14 12
3 5 5 4 5 8 5 5 6 5 5 5 6 8 9 8 7 9 10 10 11 12 10 9 10 11 10 8 7 8 8 10 8 5 6 7 8 9 9 8 8 9 10 12 13 14 16 18 18 18 18 19 20 22 22 23 24 25 26 28 32 33 34 33 31 28 28 28 28 28 29 28 29 29 28 28 28 26 24 20 16 13 12 13 13 11
Wind_Direction
157 162 192 192 183 180 180 190 190 165 180 188 175 173 181 184 234 233 225 246 171 164 225 220 235 249 250 256 256 269 280 265 257 250 243 234 226 224 220 223 220 218 226 224 217 215 214 213 213 213 214 215 217 216 215 216 218 219 218 217 217 218 219 219 219 219 218 218 218 220 222 225 227 230 232 234 234 233 231 230 231 232 232 233 233 234
169 194 203 190 174 173 180 190 180 159 182 192 170 174 197 197 226 235 222 242 177 175 250 244 247 256 256 261 263 267 268 255 243 242 243 233 225 222 221 225 223 225 229 215 209 212 212 213 212 212 212 212 214 215 214 216 217 218 217 218 218 218 217 218 219 218 219 219 219 219 221 224 226 228 230 232 234 235 236 235 235 235 235 236 235 236
195 210 195 173 167 171 183 187 161 145 167 186 179 172 196 208 214 275 302 255 166 187 262 276 250 258 261 262 260 249 244 244 235 232 236 231 226 225 221 224 224 229 229 207 207 211 209 211 210 209 211 212 214 215 215 216 217 217 217 218 219 218 218 219 219 220 221 222 223 223 225 225 227 229 232 235 236 237 239 239 239 239 239 239 239 238
202 210 177 159 164 170 180 187 167 143 157 180 178 169 196 199 171 229 284 177 151 181 232 305 289 271 264 264 259 241 233 241 238 234 237 231 227 228 222 217 216 220 223 216 214 213 209 209 208 208 211 213 213 214 215 216 216 216 218 219 218 218 219 220 221 222 224 225 225 226 228 230 232 235 236 238 239 239 241 241 241 241 240 240 240 240
196 157 151 154 166 172 176 185 180 162 168 195 183 179 194 189 180 184 158 122 17 327 359 9 321 286 255 253 257 246 235 243 239 236 244 239 232 234 229 221 219 217 215 213 214 213 208 207 207 208 211 212 211 213 215 215 216 216 218 219 219 219 220 221 222 224 224 223 223 223 225 229 233 235 236 237 238 238 239 240 241 241 241 241 242 242
176 139 151 161 171 177 180 186 186 174 173 212 213 198 184 177 173 137 124 98 46 306 310 32 300 287 286 264 262 270 273 255 239 228 238 241 236 234 234 230 226 224 219 214 212 208 205 206 207 209 210 210 211 214 217 217 217 217 218 219 218 219 220 221 223 223 222 221 220 219 218 221 224 228 229 230 233 234 235 238 240 241 242 242 243 243
174 159 162 167 172 176 185 193 190 176 163 203 226 195 159 144 139 136 142 117 114 227 298 73 184 267 307 285 267 275 274 266 257 237 240 244 239 227 226 229 224 222 223 223 219 209 206 205 204 207 209 209 212 217 218 218 218 218 218 219 218 219 220 221 222 221 220 219 219 220 220 222 223 227 231 232 234 235 237 239 240 241 242 242 243 243
161 164 169 172 171 177 190 194 187 176 166 217 221 164 131 122 141 152 149 130 165 194 346 23 128 265 289 264 262 278 281 276 271 258 251 242 236 231 226 227 223 219 216 218 221 214 210 207 204 206 208 210 215 218 217 215 217 218 218 219 219 220 221 222 221 220 219 219 219 221 222 225 227 230 235 237 236 238 240 242 242 243 243 243 244 244
158 170 174 171 173 184 189 175 166 168 175 230 182 144 136 130 141 145 130 110 68 114 281 310 70 269 275 265 272 291 270 267 264 257 253 240 233 234 231 229 224 220 215 212 217 215 212 211 209 210 210 213 216 217 216 216 218 219 218 219 219 220 222 222 221 220 220 220 220 221 222 226 230 233 237 239 240 241 241 243 244 245 245 245 245 246
160 172 167 165 179 187 165 138 155 165 177 168 118 99 87 89 90 94 114 106 57 78 226 231 137 200 272 255 239 253 242 249 252 252 254 248 241 236 235 235 226 220 217 215 219 219 216 215 214 215 215 216 217 217 217 218 218 218 218 218 219 221 221 221 222 221 222 221 221 222 224 227 231 233 236 239 241 242 242 243 245 245 246 245 245 245
117 134 150 165 185 170 135 115 152 162 151 125 105 83 68 54 51 57 63 83 101 257 219 193 169 131 287 263 213 219 235 235 238 252 260 261 259 247 237 234 225 216 215 215 220 224 222 221 220 219 219 220 220 219 218 219 218 218 218 217 219 222 221 220 222 222 223 222 222 224 226 229 232 233 234 236 238 240 240 242 244 245 246 246 246 245
112 139 170 178 162 142 129 118 17 141 145 129 113 115 101 39 24 38 11 64 199 241 203 182 161 136 231 258 234 239 258 246 226 237 257 265 267 258 244 241 231 217 215 215 218 222 221 221 221 219 221 222 221 218 218 219 219 219 219 218 220 222 221 221 222 223 223 223 224 226 228 230 233 233 232 234 237 237 238 240 243 245 246 247 247 247
142 167 174 100 155 156 149 157 5 132 161 147 139 148 148 144 159 190 208 175 213 248 199 168 141 165 235 256 270 265 262 251 233 226 245 261 268 268 259 251 242 221 215 214 215 220 216 213 214 214 217 220 218 217 218 218 219 220 220 219 220 223 223 221 222 223 223 224 226 228 229 231 233 233 233 235 238 238 238 240 241 243 245 245 247 247
159 212 174 130 171 173 168 174 179 188 184 174 166 167 169 162 179 197 187 196 221 235 259 150 135 259 272 277 254 249 253 256 252 235 237 246 255 262 264 261 252 233 221 216 212 215 213 212 211 211 215 217 216 217 218 218 219 219 220 220 222 225 225 222 222 223 224 226 229 229 230 232 232 233 234 236 238 239 240 242 243 244 245 247 249 250
164 210 190 175 180 178 184 187 167 152 173 182 168 154 165 167 183 190 177 200 193 138 324 186 181 205 208 259 242 234 252 266 266 255 254 258 254 253 267 276 261 239 228 221 219 219 218 217 213 213 215 217 219 219 219 220 219 218 219 219 222 226 226 224 224 224 225 228 230 230 231 233 233 234 236 238 240 242 243 245 246 248 249 251 253 256
177 222 178 170 181 175 182 186 116 123 162 204 140 139 184 178 149 135 165 165 127 113 253 212 230 217 206 279 280 259 249 254 258 265 270 268 258 241 251 263 256 245 234 222 223 227 229 224 218 217 218 220 223 223 221 221 220 219 220 220 223 227 227 226 226 226 228 230 231 231 232 234 235 236 238 241 242 243 245 247 249 251 254 256 258 260
183 194 164 157 183 181 174 159 150 158 164 171 169 179 190 138 119 114 141 67 88 181 233 206 245 288 317 284 282 276 266 256 243 244 245 248 239 208 228 242 247 251 244 228 227 232 233 224 217 217 218 220 223 224 224 224 223 222 222 222 224 227 227 227 228 229 229 230 231 232 234 236 237 239 241 243 244 245 247 249 251 253 256 258 259 261
165 145 174 167 169 197 169 139 161 185 152 148 189 187 134 72 90 111 129 36 88 218 259 235 234 266 287 262 292 309 290 274 242 232 248 252 220 206 227 232 235 247 258 262 257 252 246 233 223 219 218 220 221 223 225 225 223 222 222 222 223 224 226 226 227 228 229 230 232 234 236 238 240 241 243 244 246 247 249 249 251 253 255 257 258 259
141 112 339 172 151 171 70 127 159 243 225 162 181 172 138 161 207 159 155 183 189 216 274 281 252 235 208 229 281 282 267 269 270 268 267 251 224 219 230 230 235 251 267 268 257 248 245 237 230 224 221 222 222 223 225 225 223 222 222 223 225 227 228 228 227 227 229 232 236 238 240 241 241 242 244 245 247 248 248 250 251 252 254 256 257 258
144 129 131 253 131 133 139 166 184 203 264 87 147 170 168 183 192 180 166 163 173 196 236 295 302 252 221 218 242 249 250 252 256 259 245 236 229 226 224 220 225 233 235 235 235 236 235 235 233 228 227 227 224 223 225 225 225 226 227 227 228 230 230 229 229 229 233 235 236 237 238 239 240 242 243 245 245 246 247 249 251 252 254 256 257 258
142 140 154 140 68 149 176 201 198 187 176 160 169 183 189 144 109 169 177 124 136 166 192 220 267 259 245 212 219 235 245 244 241 241 239 237 234 234 227 214 213 219 224 225 225 228 230 235 235 231 229 223 217 219 221 222 224 224 225 226 226 227 226 227 228 229 233 234 234 235 236 237 239 240 241 242 242 243 245 247 248 250 253 254 255 256
149 152 149 144 163 184 190 216 217 195 184 180 184 187 186 166 128 166 208 181 149 169 171 176 241 263 251 212 216 230 241 243 228 217 230 240 236 236 232 219 212 215 225 226 223 225 228 236 235 224 216 211 211 217 219 220 222 221 222 222 222 223 224 224 226 228 231 232 232 233 234 234 235 235 236 236 237 239 240 242 244 246 248 249 250 251
108 122 141 149 169 179 192 274 279 168 150 146 193 188 174 168 162 183 211 197 178 191 142 143 258 274 256 219 213 229 243 250 228 208 225 243 237 233 236 235 228 227 235 237 235 237 239 239 231 213 211 215 217 220 220 221 223 223 224 224 224 225 225 225 227 228 228 228 227 227 225 226 226 226 228 229 231 234 235 237 238 239 241 242 243 246
85 120 137 130 105 54 20 356 16 78 119 143 203 180 171 195 193 187 201 175 179 200 176 182 256 266 274 263 226 245 263 256 232 210 217 238 247 241 241 240 233 233 243 248 246 254 257 243 221 207 211 217 220 221 221 224 226 225 225 225 226 227 225 223 224 223 222 221 220 219 218 219 220 221 224 226 229 231 233 235 235 236 238 238 240 243
158 153 143 135 134 74 60 2 6 218 194 196 203 193 193 198 185 160 134 122 193 208 181 185 237 243 272 306 280 288 304 266 243 221 211 231 239 225 227 236 232 230 241 244 246 256 254 238 221 216 220 221 222 224 224 226 227 225 224 223 223 223 220 217 216 215 215 215 215 215 216 217 220 222 225 227 229 232 234 237 238 238 239 239 241 243
128 156 159 159 165 172 186 195 192 189 195 197 195 195 200 196 185 187 189 160 218 211 177 189 230 254 289 306 303 304 295 242 242 247 209 230 231 213 216 224 219 217 226 232 241 252 251 244 231 223 225 225 225 226 226 227 225 221 219 218 217 217 214 212 212 212 213 213 213 215 216 218 221 223 226 228 231 234 236 238 240 240 241 242 243 245
104 168 178 177 182 188 191 186 168 170 182 190 191 195 202 199 192 193 199 209 212 181 185 215 220 247 271 267 270 276 257 225 236 268 258 257 253 239 234 230 225 231 239 240 248 258 258 253 239 225 226 226 227 228 227 226 222 216 215 212 210 211 210 210 212 212 214 216 216 218 218 220 223 225 227 230 231 233 235 237 240 240 240 240 241 243
119 179 181 184 195 193 166 132 145 167 184 192 190 193 198 196 191 197 215 220 181 93 240 234 198 207 236 234 241 247 237 238 263 254 250 257 254 249 253 259 257 257 259 257 250 246 244 243 236 228 229 227 227 230 228 226 222 217 216 213 209 208 207 209 211 212 214 216 217 219 220 221 223 224 226 228 229 232 235 237 239 238 236 238 239 241
141 183 179 181 189 175 145 152 167 178 190 194 191 191 191 189 193 203 219 222 185 169 238 230 188 214 228 218 233 236 205 210 235 235 229 218 235 250 251 250 248 248 251 248 241 235 233 236 230 225 229 227 226 228 226 224 222 219 218 216 213 211 209 209 211 213 214 215 217 219 219 220 223 225 228 230 229 231 233 231 230 230 231 234 236 238
162 176 170 173 176 167 165 168 171 180 190 194 196 197 193 192 199 206 217 223 209 217 247 242 218 232 228 207 229 247 229 219 215 196 189 199 229 237 226 230 237 236 237 236 236 237 233 228 223 222 227 226 224 224 222 220 219 217 217 216 214 213 211 211 213 214 214 215 217 218 217 220 225 225 224 222 218 217 215 208 203 201 204 207 209 214
197 170 160 165 170 185 186 169 170 182 189 193 198 200 195 196 206 214 222 227 216 227 245 245 240 246 232 186 208 234 247 246 239 223 221 227 240 238 229 237 240 238 241 236 233 240 238 225 220 224 226 223 221 220 218 217 216 215 217 216 215 214 212 213 215 214 214 215 215 215 217 219 219 212 206 201 196 194 190 187 188 191 195 196 196 200
182 157 149 156 169 200 197 176 175 179 185 197 202 199 193 195 204 211 216 216 206 215 234 240 244 249 228 167 190 205 216 235 247 250 250 249 245 237 237 245 243 240 243 239 232 235 232 219 214 219 220 219 219 217 215 214 213 214 215 214 214 214 212 213 215 215 214 214 213 213 214 213 206 198 195 189 184 184 185 186 188 188 192 194 196 201
156 145 147 162 178 199 192 176 171 164 172 207 209 198 194 198 204 209 216 218 209 210 223 229 237 241 191 165 204 208 200 214 228 236 246 253 253 251 255 260 263 259 249 241 235 231 226 216 211 217 218 216 215 213 212 210 208 209 211 209 211 213 211 213 215 214 213 212 211 211 209 205 198 194 190 183 182 186 186 189 192 190 191 195 196 201
144 148 160 170 181 184 157 147 152 166 193 214 209 198 196 198 202 207 217 219 211 212 224 234 240 231 152 179 215 214 204 214 220 223 232 241 246 249 251 253 257 259 252 245 238 234 230 217 213 220 222 220 217 212 210 209 208 208 209 208 210 212 211 211 213 213 213 211 209 208 206 201 196 193 188 182 184 189 188 191 194 193 194 196 196 199
152 156 167 171 172 151 138 143 168 203 216 219 201 191 195 199 202 210 222 221 213 214 223 235 242 231 185 206 221 208 212 220 222 229 230 224 217 222 231 237 242 248 249 243 235 236 235 217 212 220 224 224 221 215 211 211 211 211 212 211 211 212 211 211 211 211 211 210 207 206 203 199 196 192 187 185 188 191 191 193 194 194 196 197 196 199
163 164 166 160 154 139 149 169 193 212 220 207 159 154 166 193 204 209 226 229 220 215 218 231 243 241 229 231 220 192 233 246 245 244 236 222 216 215 220 229 233 238 243 235 223 227 227 218 214 216 219 221 221 215 211 212 211 211 212 212 212 213 212 210 210 211 211 209 207 206 202 198 195 191 188 188 190 192 192 193 195 195 196 196 195 196
175 168 162 168 175 159 165 185 205 245 55 169 178 167 174 196 200 196 222 235 219 207 215 231 240 239 235 234 205 121 1 333 289 260 233 201 217 224 220 227 230 232 239 240 235 232 230 226 220 217 216 218 218 214 211 212 211 209 209 210 211 212 210 209 212 213 213 211 208 205 201 198 195 191 189 191 193 193 193 193 194 194 194 195 194 193
193 178 169 175 183 164 166 184 201 224 225 212 204 193 184 183 163 157 214 246 206 189 207 224 233 235 235 230 173 119 81 312 269 260 210 169 204 222 221 231 233 229 231 240 243 239 233 230 226 221 217 215 216 216 213 211 210 207 205 207 208 207 206 210 215 216 214 213 210 204 200 199 197 192 190 192 194 193 192 192 193 194 193 196 197 193
357 176 173 178 180 168 174 189 193 212 233 220 189 171 152 127 109 114 196 252 221 193 201 217 230 234 232 213 163 147 166 240 255 257 157 164 196 209 216 227 230 228 231 237 242 242 236 231 227 222 217 214 217 219 216 212 209 204 203 207 207 204 206 214 220 220 216 214 209 203 200 199 198 195 192 193 194 193 191 191 192 193 193 195 196 192
21 98 184 186 184 170 177 193 195 217 245 213 155 143 140 131 117 120 209 251 224 183 191 211 226 232 221 186 174 179 203 233 247 231 164 181 199 204 215 224 222 222 230 236 242 245 240 232 222 212 209 213 218 219 216 212 207 203 206 209 204 202 212 223 225 221 216 211 205 201 200 199 199 198 195 194 193 191 190 190 189 191 193 193 192 189
51 9 196 188 184 176 179 189 214 243 247 192 152 150 141 128 127 169 217 237 174 164 189 205 216 226 215 193 193 203 216 234 244 233 186 186 204 213 223 227 224 225 228 233 241 245 240 229 220 213 213 217 219 219 217 211 205 205 208 205 200 209 222 228 225 217 211 206 202 200 199 199 200 199 195 194 192 189 189 191 191 192 193 192 190 188
140 142 192 181 179 176 179 182 213 255 237 161 150 154 146 144 177 204 210 184 139 168 192 198 205 217 213 201 205 216 226 237 244 244 223 199 217 230 236 233 228 233 236 237 243 244 234 225 222 222 224 225 223 223 220 211 205 207 205 201 207 219 225 223 217 211 207 202 200 198 198 198 199 197 195 194 192 191 191 192 193 194 194 192 189 187
167 162 168 186 174 138 165 176 192 254 230 147 148 161 167 177 204 200 161 131 157 168 174 189 210 218 207 202 213 221 232 244 250 252 242 222 227 242 247 240 229 233 237 238 241 237 227 220 219 223 228 228 226 224 219 210 207 206 202 206 216 222 220 214 211 208 202 198 197 196 196 196 195 193 193 192 192 193 192 190 190 192 193 191 187 185
197 164 160 202 190 160 174 181 184 258 223 149 147 167 190 192 207 155 165 186 202 156 163 183 216 222 202 204 217 222 232 243 250 253 247 229 228 240 245 243 236 233 235 238 240 238 229 222 223 227 229 228 226 223 218 212 209 206 206 214 220 217 210 207 205 200 196 194 193 192 192 192 191 190 191 190 190 191 190 188 187 188 190 190 187 185
217 164 147 175 202 189 205 215 201 256 233 175 141 132 177 193 287 39 133 181 216 201 178 177 209 221 212 209 215 220 230 237 241 245 245 233 229 235 240 246 245 239 238 240 243 242 233 227 227 228 229 229 227 224 222 216 211 208 212 217 217 209 205 202 196 192 191 190 188 188 188 188 188 189 190 189 190 190 189 187 186 186 187 189 188 188
161 150 120 95 277 266 263 255 248 255 275 277 297 354 134 258 321 46 72 264 239 212 190 191 213 225 220 211 212 218 226 231 238 248 251 248 250 249 248 256 257 245 231 229 234 236 233 230 227 224 226 229 226 222 221 217 213 213 217 217 211 206 203 196 189 188 187 184 184 185 184 183 184 187 189 191 193 193 191 189 187 186 186 187 188 190
274 204 143 111 223 230 252 260 249 223 230 264 283 294 299 301 293 173 161 244 253 239 214 219 249 268 234 204 215 231 241 238 243 261 267 249 252 257 255 254 257 247 232 229 234 235 233 230 225 222 224 227 224 219 216 215 214 216 219 215 207 203 198 190 186 184 182 181 181 182 181 181 181 183 187 190 192 193 193 192 191 188 187 188 187 188
250 195 169 186 210 213 237 267 273 185 232 263 282 291 290 295 293 276 252 246 272 293 277 243 250 244 222 213 212 230 260 265 246 249 258 246 244 257 257 251 253 253 245 241 240 238 233 229 227 224 223 224 222 217 214 214 214 214 216 212 204 197 191 186 184 182 180 180 180 179 180 181 180 181 185 188 191 192 190 190 191 191 191 192 193 190
135 150 188 194 206 244 267 268 286 342 316 288 277 274 273 270 271 276 276 274 286 300 296 285 264 221 212 226 210 201 249 270 251 233 248 258 253 252 251 246 248 246 238 233 231 226 223 223 223 222 221 221 219 213 211 211 210 209 210 206 199 192 186 182 182 181 179 179 178 177 179 180 181 183 184 185 187 189 189 190 192 194 195 196 197 193
135 172 192 160 198 249 259 228 179 227 273 255 224 225 241 244 244 259 274 279 279 276 277 283 285 268 240 232 211 192 232 266 262 229 232 252 255 253 252 247 242 238 230 223 221 220 221 223 224 223 222 220 214 207 205 205 204 204 205 201 195 191 186 181 178 177 178 178 177 177 177 177 180 183 183 182 182 182 182 185 188 190 189 184 180 176
200 204 187 173 227 241 216 163 170 196 224 222 204 213 228 230 231 245 255 261 267 270 266 265 273 279 277 263 225 196 217 256 267 243 235 252 256 256 257 248 238 238 229 215 209 213 220 224 225 222 220 217 209 204 203 202 200 199 199 195 192 190 187 180 175 174 177 178 177 177 176 177 179 181 181 181 180 176 171 167 164 169 173 169 164 163